Regional Weather Roundup
Issued by NWS

Home | Current Version | Previous Version | Text Only | Print | Product List | Glossary On
Versions: 1 2 3 4 5 6 7 8 9 10 11 12 13 14 15 16 17 18 19 20 21 22 23 24 25 26 27 28 29 30 31 32 33 34 35 36 37 38 39 40 41 42 43 44 45 46 47 48 49 50
000
ASUS45 KABQ 050810
RWRNM
NEW MEXICO REGIONAL WEATHER ROUNDUP
NATIONAL WEATHER SERVICE ALBUQUERQUE NM
200 AM MDT SAT SEP 05 2015

NOTE: "FAIR" MEANS FEW OR NO CLOUDS BELOW 12,000 FEET AGL WITH NO
       SIGNIFICANT WEATHER OR OBSTRUCTIONS TO VISION.

      THIS PRODUCT IS RELEASED AS TWO VERSIONS.  ONE VERSION NEAR
      THE TOP OF THE HOUR CONTAINING PRELIMINARY DATA FROM ALBUQUERQUE
      AND OTHER STATIONS.  A FINAL VERSION WITH ADDITIONAL DATA IS
      ISSUED ABOUT 10 MINUTES AFTER THE HOUR.

NMZ501-503-504-510>518-050900-
NORTHWEST PLATEAU/NORTHCENTRAL MOUNTAINS

CITY           SKY/WX    TMP DP  RH WIND       PRES   REMARKS
FARMINGTON     CLEAR     60  57  89 NE7       30.11S
LOS ALAMOS     MOCLDY    56  53  89 S3        30.25S
SANTA FE       LGT RAIN  59  55  87 CALM      30.21R
TAOS           CLOUDY    57  46  67 CALM      30.27R
ANGEL FIRE     CLOUDY    53  49  88 SW7       30.29S

$$
NMZ402-403-502-505>509-050900-
WESTCENTRAL MOUNTAINS/SOUTHWEST MOUNTAINS

CITY           SKY/WX    TMP DP  RH WIND       PRES   REMARKS
GALLUP         CLOUDY    59  54  83 SW6       30.18S
GRANTS         CLOUDY    58  56  93 S3        30.21S
SILVER CITY      N/A     59  57  94 NW8       30.14F

$$
NMZ407-409-411-412-050900-
SOUTHERN DESERTS

CITY           SKY/WX    TMP DP  RH WIND       PRES   REMARKS
LORDSBURG      FAIR      63  63 100 CALM      30.07R
DEMING         CLEAR     63  60  90 W5        30.06F
LAS CRUCES     MOCLDY    69  56  64 E3        30.07F
HOLLOMAN AFB   CLOUDY    74  57  54 N5        30.02F
ALAMOGORDO     CLOUDY    73  55  53 N8        30.03F
T OR C         PTCLDY    65  58  78 VRB6      30.08F

$$
NMZ519>523-050900-
CENTRAL VALLEYS/CENTRAL HIGHLANDS

CITY           SKY/WX    TMP DP  RH WIND       PRES   REMARKS
ALBUQUERQUE    CLOUDY    64  58  80 E3        30.15F
DOUBLE EAGLE   CLOUDY    60  58  96 CALM      30.18F
MORIARTY ARPT  CLOUDY    58  55  89 CALM      30.20F
CLINES CORNERS CLOUDY    58  50  75 W7        30.23F
BELEN          PTSUNNY   64  60  88 CALM      30.13F
SOCORRO        FAIR      64  59  83 NW3       30.10F

$$
NMZ524>526-539-540-050900-
SOUTHCENTRAL MOUNTAINS

CITY           SKY/WX    TMP DP  RH WIND       PRES   REMARKS
RUIDOSO        MOCLDY    59  54  82 W3        30.25F

$$
NMZ527>531-050900-
NORTHEAST HIGHLANDS/NORTHEAST PLAINS

CITY           SKY/WX    TMP DP  RH WIND       PRES   REMARKS
LAS VEGAS      CLOUDY    62  49  62 SW12      30.21F
RATON          CLOUDY    64  50  60 W9        30.13S
CLAYTON        MOCLDY    66  53  63 SW8       30.06F

$$
NMZ532>537-050900-
EASTCENTRAL PLAINS

CITY           SKY/WX    TMP DP  RH WIND       PRES   REMARKS
TUCUMCARI      CLEAR     65  55  70 W6        30.03R
CANNON AFB     CLEAR     68  53  58 SW6       30.07R
CLOVIS AIRPORT CLEAR     66  52  59 SW7       30.07F

$$
NMZ028-029-538-050900-
SOUTHEAST PLAINS

CITY           SKY/WX    TMP DP  RH WIND       PRES   REMARKS
ROSWELL        CLEAR     73  55  53 N6        30.02S
ARTESIA        CLEAR     75  52  43 CALM      30.01S
CARLSBAD       CLEAR     75  51  43 S7        29.97S
HOBBS            N/A     73  54  49 S10       30.03R


$$


USA.gov is the U.S. government's official web portal to all federal, state and local government web resources and services.